TimeEDT,TemperatureF,Dew PointF,Humidity,Sea Level PressureIn,VisibilityMPH,Wind Direction,Wind SpeedMPH,Gust SpeedMPH,PrecipitationIn,Events,Conditions,WindDirDegrees,DateUTC
12:53 AM,73.9,70.0,87,30.31,10.0,North,3.5,-,N/A,,Clear,350,2013-07-16 04:53:00
1:53 AM,73.9,69.1,85,30.30,10.0,Calm,Calm,-,N/A,,Partly Cloudy,0,2013-07-16 05:53:00
2:53 AM,73.9,69.1,85,30.30,10.0,Calm,Calm,-,N/A,,Clear,0,2013-07-16 06:53:00
3:53 AM,73.9,69.1,85,30.29,10.0,Calm,Calm,-,N/A,,Overcast,0,2013-07-16 07:53:00
4:53 AM,75.0,69.1,82,30.29,10.0,North,3.5,-,N/A,,Partly Cloudy,360,2013-07-16 08:53:00
5:53 AM,73.9,69.1,85,30.30,10.0,Calm,Calm,-,N/A,,Partly Cloudy,0,2013-07-16 09:53:00
6:53 AM,73.0,69.1,87,30.30,10.0,Calm,Calm,-,N/A,,Clear,0,2013-07-16 10:53:00
7:53 AM,75.0,70.0,84,30.31,10.0,Calm,Calm,-,N/A,,Clear,0,2013-07-16 11:53:00
8:53 AM,80.1,70.0,71,30.32,10.0,Calm,Calm,-,N/A,,Clear,0,2013-07-16 12:53:00
9:53 AM,82.0,71.1,69,30.32,10.0,North,3.5,-,N/A,,Clear,10,2013-07-16 13:53:00
10:53 AM,84.9,70.0,61,30.32,10.0,Variable,3.5,-,N/A,,Clear,0,2013-07-16 14:53:00
11:53 AM,84.9,69.1,59,30.31,10.0,NNE,4.6,-,N/A,,Mostly Cloudy,20,2013-07-16 15:53:00
12:53 PM,86.0,68.0,55,30.30,10.0,ENE,5.8,-,N/A,,Mostly Cloudy,60,2013-07-16 16:53:00
1:53 PM,88.0,66.9,49,30.28,10.0,SSE,5.8,-,N/A,,Mostly Cloudy,150,2013-07-16 17:53:00
2:53 PM,89.1,66.0,46,30.27,10.0,Calm,Calm,-,N/A,,Clear,0,2013-07-16 18:53:00
3:53 PM,89.1,66.9,48,30.26,10.0,Variable,6.9,-,N/A,,Partly Cloudy,0,2013-07-16 19:53:00
4:53 PM,90.0,66.9,46,30.25,10.0,North,5.8,-,N/A,,Clear,10,2013-07-16 20:53:00
5:53 PM,90.0,66.9,46,30.23,10.0,Calm,Calm,-,N/A,,Clear,0,2013-07-16 21:53:00
6:53 PM,88.0,68.0,51,30.24,10.0,SSE,6.9,-,N/A,,Clear,150,2013-07-16 22:53:00
7:53 PM,86.0,69.1,57,30.25,10.0,South,6.9,-,N/A,,Clear,190,2013-07-16 23:53:00
8:53 PM,84.0,70.0,63,30.25,10.0,Calm,Calm,-,N/A,,Clear,0,2013-07-17 00:53:00
9:53 PM,82.0,70.0,67,30.27,10.0,SW,3.5,-,N/A,,Clear,230,2013-07-17 01:53:00
10:53 PM,82.0,70.0,67,30.27,10.0,Calm,Calm,-,N/A,,Clear,0,2013-07-17 02:53:00
11:53 PM,79.0,71.1,77,30.26,10.0,West,3.5,-,N/A,,Clear,270,2013-07-17 03:53:00